Weather History for KORH - September, 2012

Change the Weather History Date:

Friday, September 14, 2012

  Actual Average Record
Temperature  
Mean Temperature 69 °F 62 °F  
Max Temperature 78 °F 70 °F 90 °F (1915)
Min Temperature 59 °F 54 °F 34 °F (1943)
Degree Days  
Heating Degree Days 0 4  
Month to date heating degree days 14 41  
Since 1 July heating degree days 16 80  
Cooling Degree Days 4 1  
Month to date cooling degree days 43 30  
Year to date cooling degree days 674 456  
Growing Degree Days 18 (Base 50)    
Moisture  
Dew Point 59 °F    
Average Humidity 75    
Maximum Humidity 100    
Minimum Humidity 50    
Precipitation  
Precipitation 0.00 in 0.13 in 1.59 in (1989)
Month to date precipitation 1.96 1.64  
Year to date precipitation 30.58 33.00  
Sea Level Pressure  
Sea Level Pressure 30.19 in    
Wind  
Wind Speed 10 mph (SW)    
Max Wind Speed 16 mph    
Max Gust Speed 21 mph    
Visibility 10 miles    
Events      
T = Trace of Precipitation, MM = Missing Value Source: NWS Daily Summary

Daily Weather History Graph

Daily Weather History Graph

Search for Another Location

Airport or City:

Trip Planner

Search our weather history database for the weather conditions in past years. The results will help you decide how hot, cold, wet, or windy it might be!

Date:

Astronomy

Sep. 14, 2012 Rise Set
Actual Time 6:26 AM EDT 6:58 PM EDT
Civil Twilight 5:58 AM EDT 7:26 PM EDT
Nautical Twilight 5:25 AM EDT 7:59 PM EDT
Astronomical Twilight 4:51 AM EDT 8:33 PM EDT
Moon 4:46 AM EDT (9/14) 5:53 PM EDT (9/14)
Length of Visible Light 13h 27m
Length of Day
12h 31m
Waning Crescent, 3% of the Moon is Illuminated
Sep 14
Waning Crescent
Sep 15
New
Sep 22
First Quarter
Sep 29
Full
Oct 8
Last Quarter

Hourly Weather History & Observations

Time (EDT) Temp. Dew Point Humidity Pressure Visibility Wind Dir Wind Speed Gust Speed Precip Events Conditions
12:54 AM 61.0 °F 60.1 °F 97% 30.28 in 9.0 mi WSW 11.5 mph - N/A   Clear
1:54 AM 61.0 °F 59.0 °F 93% 30.27 in 9.0 mi WSW 11.5 mph - N/A   Clear
2:54 AM 60.1 °F 59.0 °F 96% 30.27 in 10.0 mi WSW 11.5 mph - N/A   Clear
3:54 AM 60.1 °F 57.0 °F 90% 30.26 in 10.0 mi WSW 11.5 mph - N/A   Clear
4:54 AM 60.1 °F 57.0 °F 90% 30.25 in 10.0 mi WSW 10.4 mph - N/A   Clear
5:54 AM 59.0 °F 57.0 °F 93% 30.25 in 10.0 mi WSW 9.2 mph - N/A   Clear
6:54 AM 59.0 °F 57.0 °F 93% 30.26 in 9.0 mi WSW 10.4 mph - N/A   Clear
7:54 AM 61.0 °F 57.9 °F 90% 30.25 in 10.0 mi West 9.2 mph - N/A   Clear
8:54 AM 64.4 °F 59.0 °F 83% 30.25 in 10.0 mi West 10.4 mph - N/A   Clear
9:54 AM 69.1 °F 57.9 °F 68% 30.24 in 10.0 mi WSW 8.1 mph - N/A   Clear
10:54 AM 72.0 °F 57.9 °F 61% 30.23 in 10.0 mi WSW 5.8 mph - N/A   Clear
11:54 AM 75.0 °F 59.0 °F 57% 30.21 in 10.0 mi SSW 6.9 mph - N/A   Clear
12:54 PM 75.9 °F 59.0 °F 56% 30.19 in 10.0 mi SSW 8.1 mph - N/A   Clear
1:54 PM 77.0 °F 57.9 °F 52% 30.18 in 10.0 mi SSW 9.2 mph - N/A   Clear
2:54 PM 77.0 °F 59.0 °F 54% 30.16 in 10.0 mi South 12.7 mph - N/A   Clear
3:54 PM 77.0 °F 57.9 °F 52% 30.15 in 10.0 mi SSW 11.5 mph - N/A   Clear
4:54 PM 75.9 °F 59.0 °F 56% 30.14 in 10.0 mi South 10.4 mph - N/A   Clear
5:54 PM 73.9 °F 59.0 °F 59% 30.14 in 10.0 mi SSW 10.4 mph - N/A   Clear
6:54 PM 70.0 °F 59.0 °F 68% 30.14 in 10.0 mi SSW 6.9 mph - N/A   Clear
7:54 PM 66.9 °F 60.1 °F 79% 30.13 in 10.0 mi SSW 9.2 mph - N/A   Clear
8:54 PM 64.9 °F 61.0 °F 87% 30.12 in 10.0 mi SW 10.4 mph - N/A   Clear
9:54 PM 64.0 °F 61.0 °F 90% 30.11 in 10.0 mi SW 11.5 mph - N/A   Clear
10:34 PM 62.6 °F 60.8 °F 94% 30.11 in 10.0 mi SW 10.4 mph - N/A   Partly Cloudy
10:54 PM 63.0 °F 60.1 °F 90% 30.10 in 10.0 mi SW 9.2 mph - N/A   Partly Cloudy
11:51 PM 62.6 °F 60.8 °F 94% 30.10 in 10.0 mi SSW 8.1 mph - N/A   Mostly Cloudy
11:54 PM 63.0 °F 61.0 °F 93% 30.09 in 10.0 mi SSW 8.1 mph - N/A   Mostly Cloudy